sat.trackr.live / text

‹ back to catalog

PICO-01A003

NORAD 58326 · 2023-174BY

PAYLOAD ACTIVE UNKNOWN

§ Identity

Operator
Country
IT
Launch date
2023-11-11
Launch site
AFWTR
Launch vehicle
Mass (kg)
RCS (m²)

External: N2YO · Heavens-Above · Gunter

§ Orbital elements

Epoch: 2026-05-25T05:09:29.475072Z

Period
93.20 min
Inclination
97.3793°
Eccentricity
0.0004852
Mean motion
15.45037706 rev/d
Perigee alt
428.0 km
Apogee alt
434.6 km
Semi-major
6,809.4 km
B*
4.0537e-4
RAAN
230.1693°
Arg perigee
230.4471°
Mean anomaly
129.6350°
Rev number
14,186

§ Raw data

PICO-01A0031 58326U 23174BY  26145.21492448  .00019075  00000+0  40537-3 0  99962 58326  97.3793 230.1693 0004852 230.4471 129.6350 15.45037706141862

JSON: /api/v1/satellites/58326 · /tle

For live sub-satellite position, see the globe view (requires WebGL).

§ Visibility from observer

Set your observer location to see the next 7 days of passes ≥ 10°. The values pass through the URL so the page stays shareable.

No JS? Fill the form by hand. The geolocation button needs JavaScript.